User: anonymous   Login
Location: Beaurecueil
(43.5122°N, 5.5450°E)
Time: 10:58:07
(UTC+00:00)
Language:

CZ-2C R/B - Orbit

View from above orbital plane
View from above orbital plane
View from above satellite
View from above satellite

Ground track
Ground track

The orbit data is extracted from the following two-line orbital elements,

1 43173U 18011E   21162.91198338  .00002461  00000-0  69488-4 0  9995
2 43173  34.9751 324.8562 0139555  32.4657 328.4553 15.26850402188352
Epoch (UTC): 11 June 2021 21:53:15
Eccentricity: 0.0139555
inclination: 34.9751°
perigee height: 389 km
apogee height: 581 km
right ascension of ascending node: 324.8562°
argument of perigee: 32.4657°
revolutions per day: 15.26850402
mean anomaly at epoch: 328.4553°
orbit number at epoch: 18835

The dashed part of the orbit path shows where the satellite is in the earth's shadow,  

DLR